Alpha, California Weather observations

Data are for observation ending at time listed.
 Day   Time    Ave.   Ave.  Ave.  Vector   Max.   Stn.    Total    Solar   Ave.   Snow 
  of    of     Air    Rel.  Wind   Wind    Wind   Baro.  Precip.   Rad.    Soil   Depth
Year   Day     Temp.  Hum.  Speed  Dir.    Gust   Pres.                    Temp.       
2026   (PST)    F      %     mph   deg.    mph     mb.     in.     W/m2     F      in. 
---------------------------------------------------------------------------------------  
 129   13:50   66.9    34    2.9   211      6.7   788.7    0.00     466    999.0  999.0
 129   14:00   66.2    38    2.8   331      7.7   788.7    0.00     460    999.0  999.0
 129   14:10   65.3    42    3.1   268      9.9   788.7    0.00     449    999.0  999.0
 129   14:20   65.2    44    2.9   265     11.5   788.6    0.00     412    999.0  999.0
 129   14:30   66.0    45    3.4   273      8.3   788.5    0.00     425    999.0  999.0
 129   14:40   65.8    41    3.0   315      7.3   788.4    0.00     402    999.0  999.0
 129   14:50   65.4    43    3.0   294      7.5   788.3    0.00     376    999.0  999.0
 129   15:00   65.6    46    2.1   323      7.0   788.2    0.00     356    999.0  999.0
 129   15:10   64.9    44    3.8   302      9.5   788.2    0.00     289    999.0  999.0
 129   15:20   64.0    50    4.1   289      8.3   788.2    0.00     187    999.0  999.0
 129   15:30   63.8    50    4.8   292     12.3   788.2    0.00     228    999.0  999.0
 129   15:40   64.2    50    3.9   302      9.6   788.2    0.00     186    999.0  999.0
 129   15:50   64.5    50    3.5   313     10.2   788.2    0.00     185    999.0  999.0
 129   16:00   64.4    49    3.0   321      8.6   788.2    0.00      24    999.0  999.0
 129   16:10   64.1    48    3.6   329      8.8   788.2    0.00     121    999.0  999.0
 129   16:20   64.5    48    2.5   328      6.6   788.2    0.00     157    999.0  999.0
 129   16:30   64.5    46    3.5   322      7.4   788.2    0.00     208    999.0  999.0
 129   16:40   64.2    47    3.0   328      8.5   788.2    0.00     189    999.0  999.0
 129   16:50   64.2    47    2.7   330      6.1   788.2    0.00     171    999.0  999.0
 129   17:00   64.0    48    2.2   337      8.4   788.2    0.00     149    999.0  999.0
 129   17:10   63.1    50    3.1   321      6.6   788.2    0.00     131    999.0  999.0
 129   17:20   63.3    50    1.9   336      4.2   788.1    0.00     115    999.0  999.0
 129   17:30   63.3    50    1.9   331      4.2   788.1    0.00      98    999.0  999.0
 129   17:40   63.0    51    2.0   342      3.2   788.1    0.00      83    999.0  999.0
 129   17:50   62.1    52    2.5   329      6.6   788.2    0.00      65    999.0  999.0
 129   18:00   61.2    54    3.1   330      7.3   788.2    0.00      51    999.0  999.0
 129   18:10   60.5    56    2.6   340      6.6   788.2    0.00      43    999.0  999.0
 129   18:20   59.5    58    2.1   343      4.4   788.2    0.00      22    999.0  999.0
 129   18:30   58.9    60    1.9   352      4.0   788.2    0.00      11    999.0  999.0
 129   18:40   58.4    61    2.1   340      4.4   788.2    0.00       9    999.0  999.0
 129   18:50   57.7    63    1.3   349      2.6   788.2    0.00       6    999.0  999.0
 129   19:00   57.1    64    0.7    12      2.0   788.3    0.00       3    999.0  999.0
 129   19:10   56.4    66    1.0   354      2.1   788.3    0.00       1    999.0  999.0
 129   19:20   55.7    68    1.2   355      2.2   788.5    0.00       0    999.0  999.0
 129   19:30   55.1    69    1.0     0      1.9   788.5    0.00       0    999.0  999.0
 129   19:40   55.0    65    1.5    42      3.5   788.6    0.00       0    999.0  999.0
 129   19:50   56.3    54    2.4    95      3.9   788.7    0.00       0    999.0  999.0
 129   20:00   56.7    48    3.3   104      5.8   788.8    0.00       0    999.0  999.0
 129   20:10   56.6    43    3.0    89      5.2   788.8    0.00       0    999.0  999.0
 129   20:20   57.0    28    4.3    79      6.2   788.7    0.00       0    999.0  999.0
 129   20:30   57.5    21    4.7    73      7.8   788.7    0.00       0    999.0  999.0
 129   20:40   58.8    18    5.9    64      9.1   788.7    0.00       0    999.0  999.0
 129   20:50   59.3    18    6.1    64     11.2   788.7    0.00       0    999.0  999.0
 129   21:00   59.6    17    5.3    67      9.9   788.7    0.00       0    999.0  999.0
 129   21:10   59.2    18    5.6    68     10.2   788.7    0.00       0    999.0  999.0
 129   21:20   59.1    17    5.8    71      9.1   788.7    0.00       0    999.0  999.0
 129   21:30   59.1    17    5.4    70      8.8   788.7    0.00       0    999.0  999.0
 129   21:40   59.1    16    5.3    68      9.1   788.7    0.00       0    999.0  999.0
 129   21:50   59.2    16    5.5    66     10.7   788.8    0.00       0    999.0  999.0
 129   22:00   59.6    16    5.7    71      9.5   788.8    0.00       0    999.0  999.0
 129   22:10   59.5    16    5.5    75      9.1   788.8    0.00       0    999.0  999.0
 129   22:20   59.2    16    4.8    89      7.6   788.8    0.00       0    999.0  999.0
 129   22:30   58.5    17    4.3    94      7.2   788.8    0.00       0    999.0  999.0
 129   22:40   57.9    18    4.6    85      7.7   788.8    0.00       0    999.0  999.0
 129   22:50   58.1    17    5.2    81      8.0   788.9    0.00       0    999.0  999.0
 129   23:00   58.4    17    5.8    81      9.6   788.9    0.00       0    999.0  999.0
 129   23:10   58.2    17    6.0    76      9.7   788.9    0.00       0    999.0  999.0
 129   23:20   58.0    18    6.3    75     10.7   788.8    0.00       0    999.0  999.0
 129   23:30   58.5    17    6.5    75     10.7   788.8    0.00       0    999.0  999.0
 129   23:40   58.5    17    6.1    79     11.2   788.7    0.00       0    999.0  999.0
 129   23:50   58.5    17    6.1    80      9.3   788.7    0.00       0    999.0  999.0
 130    0:00   58.5    17    5.8    90     11.4   788.7    0.00       0    999.0  999.0
 130    0:10   58.5    17    5.4    86      9.1   788.7    0.00       0    999.0  999.0
 130    0:20   58.3    17    5.6    87      9.8   788.6    0.00       0    999.0  999.0
 130    0:30   58.2    17    4.8    89     10.4   788.6    0.00       0    999.0  999.0
 130    0:40   58.3    17    5.3    86      9.2   788.5    0.00       0    999.0  999.0
 130    0:50   58.4    17    4.8    83      8.7   788.5    0.00       0    999.0  999.0
 130    1:00   58.5    17    5.1    93      9.9   788.5    0.00       0    999.0  999.0
 130    1:10   58.5    17    4.1    91      6.6   788.5    0.00       0    999.0  999.0
 130    1:20   58.8    17    4.6    83     10.1   788.5    0.00       0    999.0  999.0
 130    1:30   58.9    17    5.1    96      9.6   788.5    0.00       0    999.0  999.0
 130    1:40   58.8    17    4.5    90      9.3   788.5    0.00       0    999.0  999.0
 130    1:50   59.1    16    5.5    94     10.5   788.5    0.00       0    999.0  999.0
 130    2:00   58.9    16    5.6   103     12.5   788.6    0.00       0    999.0  999.0
 130    2:10   58.2    17    5.1   110      9.9   788.5    0.00       0    999.0  999.0
 130    2:20   58.1    17    4.6   101      7.7   788.6    0.00       0    999.0  999.0
 130    2:30   58.3    17    4.4    99      9.2   788.5    0.00       0    999.0  999.0
 130    2:40   58.5    17    4.5   102      9.3   788.5    0.00       0    999.0  999.0
 130    2:50   58.7    17    4.4    99      7.7   788.5    0.00       0    999.0  999.0
 130    3:00   58.7    17    3.9    96      7.7   788.4    0.00       0    999.0  999.0
 130    3:10   58.8    17    4.0   100      7.2   788.5    0.00       0    999.0  999.0
 130    3:20   58.9    16    4.2   101      7.2   788.5    0.00       0    999.0  999.0
 130    3:30   58.7    17    4.1   103      8.2   788.5    0.00       0    999.0  999.0
 130    3:40   59.0    16    4.4   110      8.1   788.4    0.00       0    999.0  999.0
 130    3:50   59.2    16    4.6   101      9.4   788.4    0.00       0    999.0  999.0
 130    4:00   59.1    16    4.2   102      6.7   788.4    0.00       0    999.0  999.0
 130    4:10   58.8    16    3.9    98      6.7   788.3    0.00       0    999.0  999.0
 130    4:20   58.6    16    3.7   100      7.2   788.3    0.00       0    999.0  999.0
 130    4:30   58.6    16    4.2   105      7.0   788.3    0.00       0    999.0  999.0
 130    4:40   58.5    16    4.0   106      6.3   788.3    0.00       0    999.0  999.0
 130    4:50   58.5    16    4.8   106      7.5   788.3    0.00       1    999.0  999.0
 130    5:00   58.5    16    5.2   107      8.3   788.2    0.00       2    999.0  999.0
 130    5:10   58.4    16    4.5   108      6.9   788.2    0.00       4    999.0  999.0
 130    5:20   58.5    16    4.9   106      8.6   788.3    0.00       7    999.0  999.0
 130    5:30   58.9    16    4.7   106      8.6   788.3    0.00      21    999.0  999.0
 130    5:40   59.4    16    4.5   110      6.9   788.3    0.00      22    999.0  999.0
 130    5:50   59.5    17    4.7   106      7.4   788.4    0.00      15    999.0  999.0
 130    6:00   59.4    18    4.0   115      5.3   788.4    0.00      16    999.0  999.0
 130    6:10   59.7    18    4.1   112      6.9   788.6    0.00      22    999.0  999.0
 130    6:20   60.6    18    3.8   120      5.6   788.7    0.00      24    999.0  999.0
 130    6:30   61.2    18    3.3   130      5.1   788.8    0.00      38    999.0  999.0
 130    6:40   60.9    19    3.9   138      6.4   788.8    0.00      26    999.0  999.0
 130    6:50   61.0    19    4.0   140      6.1   788.9    0.00      73    999.0  999.0
 130    7:00   61.3    19    4.4   145      7.2   788.9    0.00     173    999.0  999.0
 130    7:10   62.0    19    4.5   142      6.6   788.9    0.00     194    999.0  999.0
 130    7:20   62.5    19    3.6   146      5.6   788.9    0.00     213    999.0  999.0
 130    7:30   63.0    18    3.2   171      4.7   789.0    0.00     232    999.0  999.0
 130    7:40   63.3    18    3.4   176      5.3   789.0    0.00     249    999.0  999.0
 130    7:50   63.9    19    2.9   170      5.2   789.1    0.00     269    999.0  999.0
 130    8:00   63.9    19    3.7   170      5.9   789.1    0.00     287    999.0  999.0
 130    8:10   64.0    19    4.3   175      7.1   789.1    0.00     305    999.0  999.0
 130    8:20   63.7    20    5.3   184      8.3   789.2    0.00     322    999.0  999.0
 130    8:30   63.8    20    6.8   194     11.2   789.2    0.00     339    999.0  999.0
 130    8:40   63.6    20    6.6   189     11.3   789.2    0.00     355    999.0  999.0
 130    8:50   63.6    21    6.9   198     10.0   789.2    0.00     372    999.0  999.0
 130    9:00   63.9    22    6.4   199     11.5   789.3    0.00     387    999.0  999.0
 130    9:10   64.3    22    4.9   208      8.4   789.3    0.00     400    999.0  999.0
 130    9:20   64.7    22    4.0   215      8.2   789.5    0.00     412    999.0  999.0
 130    9:30   64.9    23    3.2   236      8.4   789.6    0.00     424    999.0  999.0
 130    9:40   65.3    24    3.1   258      5.9   789.6    0.00     436    999.0  999.0
 130    9:50   64.9    23    3.1   282      7.2   789.7    0.00     447    999.0  999.0
 130   10:00   64.8    26    2.8   269      5.6   789.8    0.00     455    999.0  999.0
 130   10:10   64.9    26    3.7   276      6.9   789.9    0.00     464    999.0  999.0
 130   10:20   65.1    27    3.3   252      7.5   789.9    0.00     472    999.0  999.0
 130   10:30   64.9    30    4.3   238      9.6   789.9    0.00     480    999.0  999.0
 130   10:40   64.8    30    4.3   232      8.2   790.0    0.00     487    999.0  999.0
 130   10:50   65.4    30    4.2   228     10.7   790.0    0.00     493    999.0  999.0
 130   11:00   65.1    32    4.9   231     10.9   790.0    0.00     497    999.0  999.0
 130   11:10   65.5    34    4.7   224     10.4   790.1    0.00     500    999.0  999.0
 130   11:20   65.3    37    4.4   235      8.5   790.1    0.00     502    999.0  999.0
 130   11:30   65.1    39    5.4   229     10.3   790.1    0.00     504    999.0  999.0
 130   11:40   66.0    38    5.3   220     11.3   790.1    0.00     504    999.0  999.0
 130   11:50   65.5    41    4.8   238      8.8   790.2    0.00     505    999.0  999.0
 130   12:00   65.1    41    5.2   233     10.2   790.1    0.00     504    999.0  999.0
 130   12:10   65.4    41    5.3   233      9.8   790.1    0.00     502    999.0  999.0
 130   12:20   65.6    40    5.1   228     10.3   790.1    0.00     500    999.0  999.0
 130   12:30   66.3    37    5.0   234     10.8   790.1    0.00     498    999.0  999.0
 130   12:40   66.4    36    5.5   246     10.3   790.1    0.00     494    999.0  999.0
 130   12:50   66.8    34    5.3   242     13.4   790.1    0.00     489    999.0  999.0
 130   13:00   67.2    32    5.7   230     13.4   790.1    0.00     486    999.0  999.0
 130   13:10   67.1    32    6.1   234     11.7   790.1    0.00     479    999.0  999.0
 130   13:20   67.2    31    5.6   233     10.2   790.1    0.00     473    999.0  999.0
 130   13:30   67.7    31    5.9   235     14.0   790.1    0.00     466    999.0  999.0
 130   13:40   68.0    28    4.8   251      9.3   790.0    0.00     460    999.0  999.0

Return to Alpha graphs page.


Western Regional Climate Center,wrcc@dri.edu